[[{"header":{"parameterUnit":"m.s-1","parameterCategory":1,"la1":30.2991,"la2":30.254,"lo1":-89.0895,"lo2":-89.0444,"dy":0.0017,"dx":0.0017,"nx":28,"ny":28,"refTime":"2023-10-29T09:00:00:Z","depth":0,"parameterNumber":2,"parameterNumberName":"U-component_of_WINDS"},"data":[0,0,0,0,0,0,0,0,0,0,0,0,0,0,0,0,0,0,0,0,0,0,0,0,0,0,0,0,0,0,0,0,0,0,0,0,0,0,0,0,0,0,0,0,0,0,0,0,0,0,0,0,0,0,0,0,0,0,-4.3357,-4.3356,0,-4.329,-4.3289,-4.3288,-4.3147,-4.3144,-4.3141,-4.3139,-4.3072,-4.3073,-4.3074,0,0,0,0,0,0,0,0,0,0,0,0,0,-4.3368,-4.3369,-4.3357,-4.3356,-4.3355,-4.329,-4.3289,-4.3288,-4.3147,-4.3144,-4.3141,-4.3137,-4.3072,-4.3073,-4.3074,0,0,0,0,0,0,0,0,0,0,0,0,0,-4.3339,-4.3369,-4.3357,-4.3277,-4.3269,-4.329,-4.3289,-4.3288,-4.3148,-4.3144,-4.314,-4.3136,-4.3072,-4.3073,-4.3074,-4.3168,0,0,-4.3078,-4.3079,0,0,0,0,0,0,0,0,-4.334,-4.3338,-4.329,-4.3283,-4.3274,-4.3222,-4.3268,-4.3248,-4.3149,-4.3194,-4.3138,-4.3134,-4.3126,-4.3123,-4.3119,-4.3165,-4.3162,-4.3079,-4.3079,-4.308,-4.308,0,0,0,0,0,0,0,-4.3343,-4.334,-4.333,-4.3289,-4.328,-4.3246,-4.3237,-4.3264,-4.3185,-4.319,-4.318,-4.3173,-4.3121,-4.3118,-4.3117,-4.3161,-4.3079,-4.308,-4.3081,-4.3081,-4.3282,-4.3286,0,0,0,0,0,0,-4.3356,-4.3343,-4.3333,-4.3328,-4.3297,-4.325,-4.3239,-4.3243,-4.3184,-4.3171,-4.3177,-4.3167,-4.3118,-4.3115,-4.3114,-4.3219,-4.308,-4.3081,-4.3082,-4.3277,-4.3283,-4.3288,0,0,0,0,0,0,-4.3357,-4.3356,-4.3335,-4.3333,-4.3328,-4.3254,-4.3259,-4.3244,-4.3241,-4.3174,-4.316,-4.3189,-4.3115,-4.3112,-4.3156,-4.3215,-4.3082,-4.3083,-4.3272,-4.3279,-4.3285,-4.3432,0,0,0,0,0,0,-4.3358,-4.3357,-4.3391,-4.3335,-4.3328,-4.3377,-4.3263,-4.3246,-4.3244,-4.323,-4.3182,-4.317,-4.3111,-4.3155,-4.3157,-4.3215,-4.3084,-4.3266,-4.3275,-4.3283,-4.3421,-4.3443,-4.3461,0,0,0,0,0,-4.3358,-4.3435,-4.3393,-4.3393,-4.3369,-4.3381,-4.3377,-4.3308,-4.3249,-4.3283,-4.3241,-4.3171,-4.3209,-4.316,-4.3162,-4.3221,-4.3262,-4.3273,-4.3283,-4.3413,-4.3439,-4.3461,0,0,0,0,0,0,-4.3501,-4.3426,-4.3379,-4.344,-4.3418,-4.3357,-4.3397,-4.3338,-4.3332,-4.332,-4.3235,-4.3225,-4.3281,-4.3255,-4.3202,-4.3309,-4.3225,-4.3236,-4.3323,-4.3347,-4.3367,-4.3371,-4.3085,0,0,0,0,0,-4.3539,-4.3554,-4.3489,-4.3549,-4.354,-4.3472,-4.3474,-4.3423,-4.3397,-4.3387,-4.3347,-4.3326,-4.3333,-4.3339,-4.3342,-4.3419,-4.3406,-4.346,-4.348,-4.3497,-4.3507,-4.3546,-4.3569,-4.3321,-4.3321,-4.3321,0,0,-4.3618,-4.358,-4.3594,-4.3577,-4.3553,-4.3572,-4.3464,-4.3488,-4.3502,-4.3391,-4.3429,-4.34,-4.3371,-4.3432,-4.3456,-4.3412,-4.3573,-4.351,-4.3524,-4.3524,-4.3559,-4.3582,-4.3603,-4.3328,-4.3327,-4.3326,0,0,-4.3772,-4.3745,-4.3791,-4.3771,-4.3737,-4.3691,-4.3703,-4.3652,-4.3628,-4.3666,-4.3583,-4.3599,-4.3613,-4.3595,-4.3589,-4.374,-4.3676,-4.3744,-4.3847,-4.3886,-4.3906,-4.3922,-4.3976,-4.3996,-4.3754,-4.3755,-4.3755,0,-4.3875,-4.3898,-4.3823,-4.3853,-4.3848,-4.3749,-4.3797,-4.3781,-4.3751,-4.375,-4.3702,-4.3718,-4.3691,-4.3747,-4.3784,-4.3782,-4.3793,-4.3747,-4.3909,-4.3925,-4.3939,-4.3989,-4.401,-4.3763,-4.3762,-4.3761,-4.376,0,-4.4026,-4.4044,-4.4087,-4.4059,-4.4059,-4.4098,-4.4031,-4.4041,-4.3991,-4.3951,-4.3991,-4.3956,-4.3951,-4.3961,-4.3912,-4.401,-4.3984,-4.3924,-4.3836,-4.3973,-4.4018,-4.4037,-4.3775,-4.3772,-4.3769,-4.3767,0,0,-4.4263,-4.4196,-4.4213,-4.42,-4.4157,-4.417,-4.4206,-4.42,-4.421,-4.4194,-4.4222,-4.4238,-4.4182,-4.4175,-4.4124,-4.4159,-4.4281,-4.4094,-4.4092,-4.4129,-4.4387,-4.4431,-4.4454,-4.424,-4.4243,-4.4246,-4.4389,0,-4.4406,-4.446,-4.4396,-4.4465,-4.4481,-4.439,-4.4421,-4.4399,-4.4364,-4.4374,-4.4335,-4.4347,-4.4273,-4.4268,-4.4299,-4.4259,-4.4331,-4.4248,-4.4265,-4.4266,-4.4272,-4.4478,-4.4524,-4.466,-4.4406,-4.4409,-4.4411,0,-4.4577,-4.4569,-4.464,-4.4594,-4.4599,-4.4628,-4.4618,-4.4628,-4.4603,-4.4575,-4.4569,-4.4508,-4.4542,-4.446,-4.4505,-4.445,-4.4454,-4.4436,-4.444,-4.4436,-4.4345,-4.4479,-4.4702,-4.4722,-4.4439,-4.4436,-4.4434,0,-4.4742,-4.4749,-4.4792,-4.4784,-4.4732,-4.4755,-4.4735,-4.4705,-4.4707,-4.4699,-4.4699,-4.4697,-4.4695,-4.4695,-4.4636,-4.4582,-4.4689,-4.4602,-4.4667,-4.4669,-4.4691,-4.469,-4.4917,-4.4698,-4.4698,-4.4697,-4.4697,0,-4.4906,-4.4953,-4.4865,-4.4892,-4.4942,-4.4869,-4.4922,-4.4892,-4.4868,-4.4888,-4.481,-4.4831,-4.4753,-4.4767,-4.4722,-4.4766,-4.4766,-4.4745,-4.4732,-4.4751,-4.4753,-4.475,-4.4738,-4.4703,-4.4701,-4.47,-4.47,0,-4.5097,-4.504,-4.5081,-4.503,-4.5018,-4.5057,-4.5014,-4.5037,-4.4998,-4.5025,-4.5028,-4.4967,-4.4979,-4.4921,-4.4923,-4.4893,-4.496,-4.4932,-4.4968,-4.4958,-4.5026,-4.502,-4.5257,-4.5284,-4.505,-4.5052,-4.5054,0,-4.5204,-4.5237,-4.519,-4.5198,-4.5181,-4.5195,-4.5196,-4.5127,-4.5132,-4.5107,-4.5134,-4.514,-4.514,-4.5164,-4.5121,-4.5123,-4.5093,-4.5176,-4.5092,-4.5111,-4.5093,-4.509,-4.5093,-4.5193,-4.5195,-4.5198,-4.52,0,-4.5399,-4.537,-4.5374,-4.5369,-4.5373,-4.5366,-4.5354,-4.5365,-4.5291,-4.5301,-4.5311,-4.5312,-4.5315,-4.5322,-4.5315,-4.5296,-4.5236,-4.5227,-4.5242,-4.526,-4.5279,-4.5268,-4.5013,-4.5221,-4.5219,-4.5217,-4.5216,-4.5215,-4.555,-4.5576,-4.5547,-4.5554,-4.5539,-4.553,-4.5549,-4.5513,-4.5521,-4.5517,-4.5477,-4.5496,-4.5473,-4.5457,-4.5445,-4.546,-4.542,-4.5442,-4.5447,-4.5453,-4.5465,-4.5279,-4.5458,-4.5458,-4.5457,-4.5457,-4.5456,0,-4.574,-4.5718,-4.5726,-4.5711,-4.5718,-4.5662,-4.5647,-4.5656,-4.5674,-4.5656,-4.5659,-4.5673,-4.568,-4.5639,-4.5641,-4.5661,-4.5634,-4.5664,-4.566,-4.5657,-4.55,-4.5486,-4.5686,-4.5686,-4.5686,-4.5686,-4.5686,-4.5685,-4.584,-4.5881,-4.5849,-4.5883,-4.586,-4.5877,-4.5873,-4.5866,-4.5851,-4.587,-4.5876,-4.5849,-4.5823,-4.5822,-4.5827,-4.5815,-4.5819,-4.5858,-4.5837,-4.569,-4.5668,-4.5646,-4.5633,-4.586,-4.586,-4.5992,-4.5993,-4.5994]},{"header":{"parameterUnit":"m.s-1","parameterCategory":1,"la1":30.2991,"la2":30.254,"lo1":-89.0895,"lo2":-89.0444,"dy":0.0017,"dx":0.0017,"nx":28,"ny":28,"refTime":"2023-10-29T09:00:00:Z","depth":0,"parameterNumber":3,"parameterNumberName":"V-component_of_WINDS"},"data":[0,0,0,0,0,0,0,0,0,0,0,0,0,0,0,0,0,0,0,0,0,0,0,0,0,0,0,0,0,0,0,0,0,0,0,0,0,0,0,0,0,0,0,0,0,0,0,0,0,0,0,0,0,0,0,0,0,0,2.3437,2.3439,0,2.355,2.3552,2.3553,2.3669,2.3671,2.3672,2.3674,2.3784,2.3785,2.3786,0,0,0,0,0,0,0,0,0,0,0,0,0,2.3318,2.332,2.3437,2.3439,2.344,2.355,2.3552,2.3553,2.3669,2.3671,2.3673,2.3674,2.3783,2.3785,2.3787,0,0,0,0,0,0,0,0,0,0,0,0,0,2.3394,2.332,2.3437,2.3511,2.3519,2.355,2.3552,2.3554,2.3668,2.3671,2.3673,2.3675,2.3783,2.3785,2.3787,2.3752,0,0,2.3793,2.3794,0,0,0,0,0,0,0,0,2.339,2.3398,2.3499,2.3506,2.3515,2.3598,2.355,2.362,2.3668,2.3611,2.3674,2.3677,2.372,2.3727,2.3743,2.3757,2.3762,2.3794,2.3795,2.3796,2.3796,0,0,0,0,0,0,0,2.3384,2.3394,2.3482,2.35,2.351,2.3538,2.3551,2.3564,2.365,2.3617,2.3625,2.3637,2.3724,2.374,2.3746,2.3763,2.3794,2.3795,2.3797,2.3798,2.3757,2.3755,0,0,0,0,0,0,2.3369,2.3389,2.3478,2.3485,2.3457,2.3538,2.3553,2.3569,2.3651,2.3666,2.3635,2.3642,2.3736,2.3744,2.3751,2.3717,2.3796,2.3798,2.3799,2.376,2.3757,2.3754,0,0,0,0,0,0,2.3365,2.3375,2.3474,2.344,2.3454,2.3538,2.3554,2.357,2.3586,2.3665,2.368,2.3636,2.3738,2.3748,2.3752,2.3722,2.3799,2.3801,2.3762,2.3759,2.3756,2.3648,0,0,0,0,0,0,2.3362,2.3374,2.3362,2.3439,2.3456,2.3474,2.3553,2.357,2.359,2.3601,2.367,2.3683,2.374,2.3748,2.3754,2.3727,2.3802,2.3765,2.3761,2.3757,2.3654,2.3641,2.3629,0,0,0,0,0,2.3357,2.3325,2.336,2.3371,2.3443,2.3472,2.3481,2.3549,2.3587,2.3576,2.3627,2.3681,2.3725,2.3747,2.3755,2.3728,2.3768,2.3762,2.3757,2.366,2.3643,2.363,0,0,0,0,0,0,2.3239,2.3336,2.3377,2.3369,2.3412,2.3491,2.3479,2.353,2.3561,2.3569,2.365,2.3665,2.366,2.3694,2.3718,2.37,2.3754,2.375,2.3677,2.3662,2.365,2.3642,2.3804,0,0,0,0,0,2.3213,2.323,2.3313,2.3298,2.3318,2.3394,2.3409,2.3459,2.3505,2.3523,2.3574,2.3616,2.364,2.3653,2.3679,2.366,2.3677,2.3645,2.3633,2.3622,2.3618,2.3612,2.3599,2.3737,2.3737,2.3737,0,0,2.3158,2.3213,2.3218,2.3276,2.3315,2.333,2.3408,2.342,2.3432,2.3524,2.3532,2.3571,2.3623,2.3617,2.3616,2.3645,2.3584,2.3616,2.3607,2.3608,2.3605,2.3592,2.358,2.3733,2.3734,2.3734,0,0,2.3065,2.3108,2.3102,2.314,2.3199,2.3251,2.3249,2.3322,2.3352,2.3362,2.3433,2.3447,2.3485,2.352,2.3543,2.3467,2.3518,2.3472,2.3407,2.3401,2.339,2.3381,2.3355,2.3344,2.3468,2.3467,2.3467,0,2.2988,2.3015,2.3091,2.31,2.3124,2.3211,2.3205,2.3238,2.3301,2.3315,2.3347,2.3399,2.344,2.3443,2.3425,2.344,2.3441,2.3465,2.3386,2.3377,2.337,2.3346,2.3335,2.3462,2.3462,2.3463,2.3463,0,2.2919,2.2936,2.2923,2.2986,2.3008,2.3008,2.3084,2.3098,2.3146,2.3194,2.3203,2.3256,2.3295,2.33,2.3345,2.331,2.3327,2.3371,2.3427,2.335,2.3328,2.332,2.3453,2.3455,2.3457,2.3459,0,0,2.2753,2.286,2.2854,2.2884,2.2957,2.2971,2.2976,2.3017,2.3027,2.3068,2.3075,2.3107,2.315,2.3175,2.3226,2.322,2.3158,2.3266,2.3268,2.3244,2.3124,2.309,2.3078,2.3193,2.3191,2.319,2.312,0,2.2673,2.269,2.276,2.2755,2.2773,2.2858,2.2862,2.2907,2.2952,2.2973,2.3023,2.3045,2.3099,2.3116,2.3114,2.3165,2.3135,2.3172,2.3199,2.3199,2.3183,2.3066,2.303,2.2961,2.3112,2.311,2.3109,0,2.2582,2.2621,2.2618,2.2693,2.2703,2.2706,2.2751,2.277,2.2822,2.2856,2.2886,2.2944,2.2954,2.3007,2.3021,2.3045,2.3061,2.3088,2.3087,2.3092,2.3149,2.3068,2.294,2.293,2.3097,2.3098,2.3098,0,2.2462,2.2514,2.252,2.2543,2.263,2.263,2.2666,2.2722,2.2743,2.2781,2.2795,2.2833,2.2853,2.2881,2.2947,2.2979,2.2954,2.3012,2.2982,2.298,2.2972,2.2972,2.2845,2.2982,2.2982,2.2982,2.2982,0,2.2366,2.2361,2.2468,2.2471,2.2469,2.255,2.2545,2.2589,2.2638,2.2651,2.2726,2.2736,2.2823,2.2843,2.2895,2.29,2.2908,2.2935,2.2949,2.2929,2.2925,2.294,2.2946,2.298,2.298,2.2981,2.2981,0,2.2232,2.2303,2.2315,2.2398,2.2419,2.2413,2.2484,2.249,2.2542,2.2558,2.2566,2.2645,2.2673,2.2743,2.2788,2.2823,2.2814,2.2839,2.2797,2.2806,2.2772,2.2774,2.265,2.2638,2.2781,2.2779,2.2778,0,2.2165,2.2165,2.2248,2.2264,2.2298,2.2321,2.2344,2.2423,2.2443,2.2505,2.2504,2.2539,2.257,2.2611,2.2672,2.2707,2.2734,2.2688,2.274,2.272,2.2734,2.2734,2.2734,2.2676,2.2675,2.2673,2.2672,0,2.2041,2.2077,2.2108,2.2151,2.2177,2.2214,2.2255,2.2263,2.2353,2.2372,2.2403,2.2428,2.2476,2.2509,2.2555,2.2591,2.2646,2.2655,2.2651,2.2629,2.2605,2.2619,2.2766,2.2658,2.2659,2.266,2.2661,2.2661,2.1939,2.1943,2.2004,2.2036,2.2076,2.2114,2.2125,2.2179,2.2207,2.2254,2.2299,2.2325,2.238,2.2447,2.248,2.2501,2.2529,2.2522,2.252,2.2517,2.2508,2.2602,2.251,2.251,2.251,2.2511,2.2511,0,2.1819,2.1863,2.1892,2.195,2.1975,2.2028,2.2077,2.2094,2.2117,2.2164,2.2195,2.2232,2.2265,2.233,2.2369,2.2373,2.24,2.2381,2.2381,2.2389,2.248,2.2481,2.2359,2.2359,2.2359,2.2359,2.2359,2.2359,2.176,2.177,2.1814,2.1845,2.1888,2.1917,2.1941,2.1976,2.2014,2.2052,2.2081,2.2125,2.2179,2.2223,2.2256,2.2274,2.2285,2.2258,2.2284,2.2368,2.2382,2.2396,2.2397,2.2259,2.2259,2.2191,2.219,2.219]}]]